Location: Jackson Park
(37.2862°N, 79.9123°W)
Time: 23:12:19
(UTC+00:00)

Transit 4A - Pass Details

Date: 14 May 2026
Orbit: 861 x 980 km, 66.8° (Epoch: 5 June)

Event Time Altitude Azimuth Distance (km) Brightness Sun altitude
Rises 20:59:20 0° 343° (NNW) 3,685 11.2 38.2°
Reaches altitude 10° 21:02:38 10° 359° (N) 2,737 10.4 37.5°
Maximum altitude 21:07:21 21° 47° (NE) 2,047 9.5 36.6°
Drops below altitude 10° 21:12:01 10° 94° (E) 2,715 9.9 35.7°
Sets 21:15:16 0° 110° (ESE) 3,646 10.5 35.0°
